Location: ?????????
(54.7630°N, 39.4991°E)
Time: 15:39:14
(UTC+00:00)

IRS-1A Rocket - Pass Details

Date: 14 April 2026
Orbit: 852 x 930 km, 98.9° (Epoch: 17 May)

Event Time Altitude Azimuth Distance (km) Brightness Sun altitude
Exits shadow 17:26:21 - 154° (SSE) 2,876 6.5 -9.0°
Reaches altitude 10° 17:27:17 10° 153° (SSE) 2,505 6.2 -9.1°
Maximum altitude 17:32:51 75° 70° (ENE) 912 4.3 -9.8°
Drops below altitude 10° 17:38:33 10° 346° (NNW) 2,571 7.5 -10.5°
Sets 17:40:59 0° 345° (NNW) 3,527 8.3 -10.8°
